• Em Portugal
  • Lista de países
  • Para 7 dias
  • Temperatura da água
  • Mapas de satélite
  • Mapa do tempo
  • Widgets de tempo
  • user-avatar
    Iniciar Sessão

    Previsão horária em Kaunas

    Hoje, 24 Fevereiro, Sábado

    Tempo Temperatura Precipitação Vento Pressão Humidade
    00:00 -14°C° 0,1 mm 3 m/s 762 mmHg 89%
    01:00 -14°C° 0,1 mm 3 m/s 762 mmHg 89%
    02:00 -14°C° 0 mm 3 m/s 763 mmHg 89%
    03:00 -16°C° 0 mm 4 m/s 763 mmHg 89%
    04:00 -16°C° 0 mm 4 m/s 763 mmHg 89%
    05:00 -17°C° 0 mm 4 m/s 764 mmHg 88%
    06:00 -17°C° 0 mm 4 m/s 764 mmHg 89%
    07:00 -18°C° 0 mm 4 m/s 765 mmHg 90%
    08:00 -19°C° 0 mm 4 m/s 765 mmHg 91%
    09:00 -18°C° 0 mm 4 m/s 766 mmHg 88%
    10:00 -17°C° 0 mm 4 m/s 766 mmHg 86%
    11:00 -16°C° 0 mm 4 m/s 766 mmHg 83%
    12:00 -15°C° 0 mm 4 m/s 766 mmHg 81%
    13:00 -14°C° 0 mm 5 m/s 766 mmHg 79%
    14:00 -14°C° 0 mm 5 m/s 767 mmHg 77%
    15:00 -14°C° 0 mm 5 m/s 767 mmHg 78%
    16:00 -14°C° 0 mm 5 m/s 767 mmHg 79%
    17:00 -14°C° 0 mm 4 m/s 767 mmHg 80%
    18:00 -15°C° 0 mm 4 m/s 767 mmHg 83%
    19:00 -15°C° 0 mm 4 m/s 767 mmHg 86%
    20:00 -15°C° 0 mm 3 m/s 768 mmHg 88%
    21:00 -15°C° 0 mm 3 m/s 768 mmHg 90%
    22:00 -16°C° 0 mm 3 m/s 768 mmHg 91%
    23:00 -15°C° 0 mm 2 m/s 768 mmHg 92%

    Amanhã, 25 Fevereiro, Domingo

    Tempo Temperatura Precipitação Vento Pressão Humidade
    00:00 -16°C° 0 mm 2 m/s 768 mmHg 93%
    01:00 -16°C° 0 mm 2 m/s 768 mmHg 93%
    02:00 -16°C° 0 mm 2 m/s 768 mmHg 94%
    03:00 -17°C° 0 mm 2 m/s 768 mmHg 94%
    04:00 -17°C° 0 mm 2 m/s 768 mmHg 95%
    05:00 -17°C° 0 mm 2 m/s 768 mmHg 95%
    06:00 -17°C° 0 mm 2 m/s 768 mmHg 95%
    07:00 -17°C° 0 mm 2 m/s 768 mmHg 94%
    08:00 -17°C° 0 mm 2 m/s 769 mmHg 94%
    09:00 -16°C° 0 mm 2 m/s 768 mmHg 90%
    10:00 -16°C° 0 mm 3 m/s 768 mmHg 87%
    11:00 -16°C° 0 mm 3 m/s 768 mmHg 83%
    12:00 -15°C° 0 mm 3 m/s 768 mmHg 81%
    13:00 -15°C° 0 mm 3 m/s 768 mmHg 80%
    14:00 -14°C° 0 mm 3 m/s 768 mmHg 78%
    15:00 -15°C° 0 mm 3 m/s 768 mmHg 79%
    16:00 -15°C° 0 mm 3 m/s 768 mmHg 80%
    17:00 -15°C° 0 mm 3 m/s 767 mmHg 82%
    18:00 -16°C° 0 mm 3 m/s 768 mmHg 84%
    19:00 -16°C° 0 mm 3 m/s 768 mmHg 87%
    20:00 -16°C° 0 mm 2 m/s 768 mmHg 89%
    21:00 -16°C° 0 mm 2 m/s 768 mmHg 90%
    22:00 -16°C° 0 mm 2 m/s 768 mmHg 91%
    23:00 -16°C° 0 mm 2 m/s 768 mmHg 92%

    Depois de amanhã, 26 Fevereiro, Segunda-feira

    Tempo Temperatura Precipitação Vento Pressão Humidade
    00:00 -16°C° 0 mm 2 m/s 768 mmHg 93%
    01:00 -16°C° 0 mm 2 m/s 768 mmHg 94%
    02:00 -14°C° 0 mm 1 m/s 768 mmHg 95%
    03:00 -16°C° 0 mm 2 m/s 767 mmHg 95%
    04:00 -16°C° 0 mm 2 m/s 767 mmHg 95%
    05:00 -16°C° 0 mm 2 m/s 767 mmHg 95%
    06:00 -16°C° 0 mm 2 m/s 767 mmHg 95%
    07:00 -16°C° 0 mm 2 m/s 767 mmHg 96%
    08:00 -16°C° 0 mm 2 m/s 767 mmHg 96%
    09:00 -15°C° 0 mm 2 m/s 767 mmHg 92%
    10:00 -14°C° 0 mm 2 m/s 766 mmHg 88%
    11:00 -13°C° 0 mm 2 m/s 766 mmHg 84%
    12:00 -12°C° 0 mm 2 m/s 766 mmHg 82%
    13:00 -10°C° 0 mm 2 m/s 766 mmHg 79%
    14:00 -9°C° 0 mm 2 m/s 765 mmHg 76%
    15:00 -10°C° 0,1 mm 2 m/s 765 mmHg 78%
    16:00 -10°C° 0,1 mm 2 m/s 765 mmHg 79%
    17:00 -10°C° 0,1 mm 2 m/s 765 mmHg 80%
    18:00 -12°C° 0 mm 2 m/s 765 mmHg 83%
    19:00 -13°C° 0 mm 2 m/s 764 mmHg 86%
    20:00 -12°C° 0 mm 1 m/s 764 mmHg 89%
    21:00 -12°C° 0 mm 1 m/s 764 mmHg 90%
    22:00 -13°C° 0 mm 1 m/s 765 mmHg 91%
    23:00 -13°C° 0 mm 1 m/s 765 mmHg 91%

    27 Fevereiro, Terça-feira

    Tempo Temperatura Precipitação Vento Pressão Humidade
    00:00 -15°C° 0 mm 2 m/s 765 mmHg 92%
    01:00 -16°C° 0 mm 2 m/s 765 mmHg 92%
    02:00 -16°C° 0 mm 2 m/s 765 mmHg 92%
    03:00 -16°C° 0 mm 2 m/s 765 mmHg 92%
    04:00 -18°C° 0 mm 3 m/s 765 mmHg 92%
    05:00 -18°C° 0 mm 3 m/s 765 mmHg 92%
    06:00 -19°C° 0 mm 3 m/s 765 mmHg 92%
    07:00 -19°C° 0 mm 3 m/s 766 mmHg 92%
    08:00 -22°C° 0 mm 4 m/s 766 mmHg 91%
    09:00 -20°C° 0 mm 4 m/s 766 mmHg 89%
    10:00 -19°C° 0 mm 4 m/s 767 mmHg 86%
    11:00 -19°C° 0 mm 4 m/s 767 mmHg 84%
    12:00 -18°C° 0 mm 4 m/s 767 mmHg 81%
    13:00 -17°C° 0 mm 4 m/s 767 mmHg 79%
    14:00 -16°C° 0 mm 4 m/s 767 mmHg 76%
    15:00 -16°C° 0 mm 4 m/s 767 mmHg 77%
    16:00 -17°C° 0 mm 5 m/s 767 mmHg 77%
    17:00 -17°C° 0 mm 5 m/s 768 mmHg 78%
    18:00 -18°C° 0 mm 5 m/s 768 mmHg 80%
    19:00 -19°C° 0 mm 5 m/s 768 mmHg 82%
    20:00 -20°C° 0 mm 5 m/s 769 mmHg 84%
    21:00 -20°C° 0 mm 5 m/s 769 mmHg 85%
    22:00 -20°C° 0 mm 5 m/s 769 mmHg 85%
    23:00 -21°C° 0 mm 5 m/s 769 mmHg 86%

    28 Fevereiro, Quarta-feira

    Tempo Temperatura Precipitação Vento Pressão Humidade
    00:00 -21°C° 0 mm 5 m/s 769 mmHg 86%
    01:00 -21°C° 0 mm 5 m/s 769 mmHg 87%
    02:00 -22°C° 0 mm 5 m/s 769 mmHg 87%
    03:00 -22°C° 0 mm 5 m/s 769 mmHg 87%
    04:00 -22°C° 0 mm 5 m/s 769 mmHg 87%
    05:00 -22°C° 0 mm 5 m/s 768 mmHg 87%
    06:00 -22°C° 0 mm 5 m/s 768 mmHg 87%
    07:00 -22°C° 0 mm 5 m/s 768 mmHg 87%
    08:00 -22°C° 0 mm 5 m/s 768 mmHg 86%
    09:00 -21°C° 0 mm 5 m/s 768 mmHg 85%
    10:00 -22°C° 0 mm 6 m/s 768 mmHg 84%
    11:00 -21°C° 0 mm 6 m/s 767 mmHg 82%
    12:00 -20°C° 0 mm 6 m/s 767 mmHg 82%
    13:00 -18°C° 0 mm 6 m/s 767 mmHg 81%
    14:00 -18°C° 0 mm 6 m/s 766 mmHg 81%
    15:00 -18°C° 0,1 mm 6 m/s 766 mmHg 82%
    16:00 -17°C° 0,1 mm 6 m/s 765 mmHg 84%
    17:00 -17°C° 0,1 mm 5 m/s 765 mmHg 85%
    18:00 -18°C° 0,1 mm 5 m/s 765 mmHg 86%
    19:00 -18°C° 0,1 mm 5 m/s 765 mmHg 87%
    20:00 -18°C° 0,1 mm 5 m/s 765 mmHg 87%
    21:00 -18°C° 0,1 mm 5 m/s 765 mmHg 88%
    22:00 -18°C° 0,1 mm 5 m/s 765 mmHg 88%
    23:00 -18°C° 0,1 mm 5 m/s 764 mmHg 89%

    1 Março, Quinta-feira

    Tempo Temperatura Precipitação Vento Pressão Humidade
    00:00 -17°C° 0,1 mm 4 m/s 764 mmHg 89%
    01:00 -18°C° 0,1 mm 4 m/s 764 mmHg 89%
    02:00 -18°C° 0,1 mm 4 m/s 764 mmHg 90%
    03:00 -18°C° 0,1 mm 4 m/s 763 mmHg 90%
    04:00 -17°C° 0,1 mm 3 m/s 763 mmHg 91%
    05:00 -17°C° 0,1 mm 3 m/s 763 mmHg 92%
    06:00 -17°C° 0 mm 3 m/s 762 mmHg 92%
    07:00 -17°C° 0 mm 3 m/s 762 mmHg 92%
    08:00 -18°C° 0 mm 3 m/s 762 mmHg 93%
    09:00 -17°C° 0 mm 3 m/s 761 mmHg 89%
    10:00 -15°C° 0 mm 2 m/s 761 mmHg 86%
    11:00 -14°C° 0 mm 2 m/s 761 mmHg 83%
    12:00 -13°C° 0 mm 2 m/s 760 mmHg 80%
    13:00 -13°C° 0 mm 2 m/s 760 mmHg 78%
    14:00 -12°C° 0 mm 2 m/s 760 mmHg 76%
    15:00 -12°C° 0 mm 2 m/s 759 mmHg 77%
    16:00 -12°C° 0 mm 2 m/s 759 mmHg 79%
    17:00 -13°C° 0 mm 2 m/s 758 mmHg 81%
    18:00 -14°C° 0 mm 2 m/s 758 mmHg 85%
    19:00 -13°C° 0 mm 1 m/s 758 mmHg 89%
    20:00 -14°C° 0 mm 1 m/s 758 mmHg 93%
    21:00 -14°C° 0 mm 1 m/s 758 mmHg 93%
    22:00 -15°C° 0 mm 1 m/s 758 mmHg 94%
    23:00 -15°C° 0 mm 1 m/s 758 mmHg 95%
    Mostrar mais